Simultaneous Nadir Overpasses (SNOs) Predictions

Prediction of SNOs between GOES-15 and TERRA Satellite Orbit:

Table of predicted SNOs for the next 14.0 days since TLE Epoch: 5/12/2017
Index Date Time (GOES-15) GOES-15 Lat,Lon TERRA Lat,Lon Distance(km) Time Diff (sec)
1 05/12/2017 19:19:02 -0.11,-135.22 -0.68,-132.59 299.85 80
2 05/13/2017 07:40:26 0.10,-135.15 -0.44,-137.78 298.36 80
3 05/15/2017 07:30:54 0.11,-135.09 0.15,-134.81 31.02 80
4 05/17/2017 07:18:43 0.12,-135.02 0.80,-131.86 359.60 80
5 05/17/2017 19:39:57 -0.11,-135.06 0.33,-137.01 222.22 80
6 05/19/2017 19:25:07 -0.12,-134.98 -0.33,-134.06 105.80 80
7 05/20/2017 07:46:30 0.12,-134.90 -0.79,-139.24 493.20 80
8 05/21/2017 19:12:55 -0.12,-134.90 -0.93,-131.09 433.27 80
9 05/22/2017 07:34:18 0.12,-134.82 -0.19,-136.28 165.83 80
10 05/24/2017 07:24:46 0.12,-134.73 0.42,-133.32 160.83 80
11 05/24/2017 19:46:01 -0.11,-134.77 0.70,-138.47 421.28 80




NCC Satellite Simultaneous Nadir Overpasses (SNOs) Prediction Service
